Simultaneous Nadir Overpasses (SNOs) Predictions

Prediction of SNOs over PacNW region [( 10.00, 139.50) to ( 22.70, 165.60)] between NOAA-19 and NPP Satellites:

Table of predicted SNOs over PacNW region for the next 30.0 days since TLE Epoch: 2/15/2013
Index Date (NOAA-19) Time (NOAA-19) NOAA-19 Lat,Lon Date (NPP) Time (NPP) NPP Lat,Lon Distance(km) Time Diff (sec)
1 02/22/2013 02:35:44 13.02, 162.98 02/22/2013 02:38:29 12.19, 159.34 405.60 165
2 02/22/2013 15:12:25 17.71, 158.72 02/22/2013 15:11:00 18.28, 156.00 294.61 85
3 03/06/2013 14:44:09 16.19, 165.59 03/06/2013 14:45:55 18.19, 162.27 416.42 106
4 03/06/2013 16:24:23 22.63, 141.66 03/06/2013 16:25:56 23.40, 138.18 366.12 93
5 03/07/2013 03:40:54 22.68, 145.08 03/07/2013 03:38:41 22.17, 142.63 258.88 133
